#timestamp,LO_Frequency,Hit,StdDev 
1569463215.6,286046999.8,N
1569463235.4,286047000.9,N
1569463255.2,286047000.0,N
1569463275.1,286047002.6,N
1569463276.0,286047002.6,N
1569463295.8,286047000.0,N
1569463315.7,286047001.9,N
1569463335.5,286047002.8,N
1569463355.3,286047000.3,N
1569463375.2,286047000.3,N
1569463395.0,286047001.2,N
1569463395.9,286047001.2,N
1569463415.7,286047000.9,N
1569463435.6,286046999.9,N
1569463455.4,286047002.8,N
1569463475.3,286047000.0,N
1569463495.1,286047000.4,N
1569463496.0,286047000.4,N
1569463515.8,286047000.2,N
1569463535.7,286046999.8,N
1569463555.5,286047000.7,N
1569463575.4,286047000.2,N
1569463595.2,286047002.6,N
1569463615.0,286047000.5,N
1569463615.9,286047000.5,N
1569463635.8,286046999.7,N
1569463655.6,286047000.8,N
1569463675.4,286047002.3,N
1569463695.3,286047000.1,N
1569463715.1,286047001.8,N
1569463735.9,286047002.3,N
1569463755.7,286047000.0,N
1569463775.5,286047002.5,N
1569463795.4,286047001.4,N
1569463815.2,286047002.1,N
1569463835.1,286047000.3,N
1569463836.0,286047000.3,N
1569463855.8,286046999.8,N
1569463875.6,286047000.4,N
1569463895.5,286047001.9,N
1569463915.3,286047002.8,N
1569463935.1,286046999.9,N
1569463955.9,286046999.8,N
1569463975.7,286047000.3,N
1569463995.6,286047000.2,N
1569464015.4,286047002.2,N
1569464035.2,286047002.4,N
1569464055.1,286047001.8,N
1569464056.0,286047001.8,N
1569464075.8,286047003.0,N
1569464095.7,286047004.3,Y
1569464115.5,286047001.5,P
1569464135.3,286047004.4,P
1569464155.2,286047003.1,N
1569464175.0,286047003.2,N
1569464175.9,286047003.2,N
1569464195.8,286047005.4,Y
1569464215.6,286047001.6,P
1569464235.4,286047001.5,N
1569464255.3,286047004.3,P
1569464275.1,286047002.2,N
1569464295.8,286047001.6,N
1569464315.7,286047004.3,Y
1569464335.5,286047000.3,P
1569464355.4,286046999.8,N
1569464375.2,286047001.5,N
1569464395.0,286047004.4,Y
1569464395.9,286047004.4,P
1569464415.8,286047000.0,N
1569464435.6,286047001.1,N
1569464455.5,286046998.6,N
1569464475.3,286047001.2,N
1569464495.1,286047002.7,N
1569464515.9,286047000.1,N
1569464535.7,286047004.1,N
1569464555.6,286047001.7,N
1569464575.4,286047001.5,N
1569464595.2,286047001.8,N
1569464615.1,286047001.9,N
1569464616.0,286047001.9,N
1569464635.8,286047001.5,N
1569464655.6,286047001.7,N
1569464675.5,286047001.5,N
1569464695.3,286047001.6,N
1569464715.2,286047001.9,N
1569464735.9,286047002.1,N
1569464755.7,286047002.4,N
1569464775.6,286047000.6,N
1569464795.4,286046998.2,N
1569464815.3,286046997.0,N
1569464835.1,286046997.1,N
1569464836.0,286046997.1,N
1569464855.8,286046996.7,N
1569464875.7,286046996.5,N
1569464895.5,286046999.1,N
1569464915.3,286046999.2,N
1569464935.2,286046998.9,N
1569464955.0,286046998.8,N
1569464955.9,286046998.8,N
1569464975.8,286046998.5,N
1569464995.6,286046998.9,N
1569465015.4,286047001.2,N
1569465035.3,286047000.8,N
1569465055.1,286046998.5,N
1569465075.9,286046998.6,N
1569465095.7,286047000.5,N
1569465115.5,286046996.9,N
1569465135.4,286046997.4,N
1569465155.2,286046998.0,N
1569465175.1,286046996.2,N
1569465176.0,286046996.2,N
1569465195.8,286046993.7,Y
1569465215.6,286046996.0,P
1569465235.5,286046994.6,P
1569465255.3,286046994.8,N
1569465275.2,286046992.6,Y
1569465295.9,286046995.3,P
1569465315.7,286046996.3,P
1569465335.6,286046995.3,P
1569465355.4,286046997.8,Y
1569465375.2,286047002.7,P
1569465395.1,286047001.4,N
1569465396.0,286047001.4,N
1569465415.8,286047002.6,N
1569465435.7,286047004.4,N
1569465455.5,286047001.4,N
1569465475.3,286047002.6,N
1569465495.2,286047001.9,N
1569465515.0,286047001.3,N
1569465515.9,286047001.3,N
1569465535.8,286047001.5,N
1569465555.6,286047002.4,N
1569465575.4,286046998.2,N
1569465595.3,286047001.1,N
1569465615.1,286047002.6,N
1569465635.9,286047002.5,N
1569465655.7,286047001.5,N
1569465675.5,286047002.6,N
1569465695.4,286047002.7,N
1569465715.2,286046999.8,N
1569465735.0,286047002.0,N
1569465735.9,286047002.0,N
1569465755.8,286047000.5,N
1569465775.6,286047002.6,N
1569465795.5,286047002.1,N
1569465815.3,286047001.4,N
1569465835.1,286046999.8,N
1569465855.9,286047000.4,N
1569465875.7,286047000.0,N
1569465895.6,286047002.8,N
1569465915.4,286047002.4,N
1569465935.2,286047002.5,N
1569465955.1,286047000.8,N
1569465956.0,286047000.8,N
1569465975.8,286046999.0,N
1569465995.6,286046999.2,N
1569466015.5,286046999.1,N
1569466035.3,286046999.4,N
1569466055.2,286046996.8,N
1569466075.9,286046996.5,N
1569466095.7,286047001.1,N
1569466115.6,286047002.4,N
1569466135.4,286047002.3,N
1569466155.3,286047000.3,N
1569466175.1,286047000.1,N
1569466176.0,286047000.1,N
1569466195.8,286047000.7,N
1569466215.7,286047000.3,N
1569466235.5,286047000.5,N
1569466255.4,286047000.0,N
1569466275.2,286047000.1,N
1569466295.0,286046999.8,N
1569466295.9,286046999.8,N
1569466315.8,286047002.8,N
1569466335.6,286046998.1,N
1569466355.5,286047000.4,N
1569466375.3,286047002.3,N
1569466395.1,286047002.7,N
1569466415.9,286047001.6,N
1569466435.7,286047002.2,N
1569466455.5,286047001.9,N
1569466475.4,286047002.5,N
1569466495.2,286047003.5,N
1569466515.1,286047004.4,N
1569466516.0,286047004.4,N
1569466535.8,286047001.5,N
1569466555.6,286047001.5,N
1569466575.5,286047001.6,N
1569466595.3,286047000.2,N
1569466615.2,286047000.0,N
1569466635.0,286047002.4,N
1569466635.9,286047002.4,N
1569466655.8,286047002.2,N
1569466675.6,286047001.6,N
1569466695.4,286047002.3,N
1569466715.3,286047000.0,N
1569466735.1,286047002.5,N
1569466755.8,286047002.6,N
1569466775.7,286047002.7,N
1569466795.5,286047001.6,N
